Location: Oshawa
(43.9000°N, 78.8670°W)
Time: 21:29:57
(UTC-04:00)

S-56A Canister/Altair - All Passes

Search period start: 31 July 2015 00:00
Search period end: 10 August 2015 00:00
Orbit: 637 x 2498 km, 38.9° (Epoch: 30 July)

Date Brightness Start Highest point End Pass type
(mag) Time Alt. Az. Time Alt. Az. Time Alt. Az.
31 Jul - 03:25:50 10° S 03:30:32 16° SSE 03:34:40 10° ESE visible
31 Jul - 05:27:37 10° SW 05:34:30 36° SSE 05:39:30 10° E visible
31 Jul - 07:32:12 10° WSW 07:38:04 50° S 07:42:35 10° ESE daylight
31 Jul - 09:36:55 10° W 09:41:14 31° SSW 09:45:11 10° SE daylight
01 Aug - 02:53:32 10° S 02:58:08 15° SSE 03:02:18 10° ESE visible
01 Aug - 04:54:53 10° SW 05:02:14 35° SSE 05:07:31 10° E visible
01 Aug - 06:59:32 10° WSW 07:05:55 51° S 07:10:39 10° ESE daylight
01 Aug - 09:04:27 10° W 09:09:11 35° SSW 09:13:16 10° SE daylight
01 Aug - 11:11:25 10° SW 11:11:59 10° SSW 11:12:25 10° SSW daylight
02 Aug - 02:21:20 10° S 02:25:42 14° SSE 02:29:47 10° ESE visible
02 Aug - 04:22:07 10° SW 04:29:56 34° SSE 04:35:31 10° E visible
02 Aug - 06:26:48 10° WSW 06:33:46 52° S 06:38:43 10° E daylight
02 Aug - 08:31:56 10° W 08:37:08 39° SSW 08:41:22 10° SE daylight
02 Aug - 10:37:56 10° WSW 10:39:54 12° SSW 10:41:44 10° S daylight
03 Aug - 01:49:16 10° SSE 01:53:12 13° SE 01:57:06 10° ESE visible
03 Aug - 03:49:18 10° SW 03:57:34 33° SSE 04:03:30 10° E visible
03 Aug - 05:53:59 10° WSW 06:01:33 52° S 06:06:47 10° E daylight
03 Aug - 07:59:20 10° W 08:05:02 44° SSW 08:09:28 10° ESE daylight
03 Aug - 10:05:04 10° WSW 10:07:51 15° SSW 10:10:23 10° S daylight
04 Aug - 01:17:26 10° SSE 01:20:40 12° SE 01:24:08 10° ESE visible
04 Aug - 03:16:28 10° SSW 03:25:09 32° SSE 03:31:26 10° E visible
04 Aug - 05:21:05 10° WSW 05:29:17 52° S 05:34:52 10° E visible
04 Aug - 07:26:38 10° W 07:32:56 48° SSW 07:37:35 10° ESE daylight
04 Aug - 09:32:19 10° WSW 09:35:49 18° SSW 09:38:53 10° SSE daylight
05 Aug - 00:46:07 10° SSE 00:48:04 11° SE 00:50:38 10° SE visible
05 Aug - 02:43:38 10° SSW 02:52:41 31° SSE 02:59:19 10° E visible
05 Aug - 04:48:06 10° WSW 04:56:58 52° S 05:02:55 10° E visible
05 Aug - 06:53:51 10° W 07:00:46 52° S 07:05:43 10° ESE daylight
05 Aug - 08:59:35 10° W 09:03:46 22° SSW 09:07:18 10° SSE daylight
06 Aug - 02:10:49 10° SSW 02:20:10 29° SSE 02:27:09 10° E visible
06 Aug - 04:15:05 10° WSW 04:24:36 51° SSE 04:30:57 10° E visible
06 Aug - 06:20:59 10° W 06:28:35 55° S 06:33:49 10° ESE daylight
06 Aug - 08:26:50 10° W 08:31:43 26° SSW 08:35:39 10° SSE daylight
07 Aug - 01:38:03 10° SSW 01:47:35 28° SSE 01:54:55 10° E visible
07 Aug - 03:42:01 10° WSW 03:52:10 51° SSE 03:58:57 10° E visible
07 Aug - 05:48:01 10° W 05:56:21 58° S 06:01:56 10° ESE daylight
07 Aug - 07:54:02 10° W 07:59:39 31° SSW 08:03:58 10° SE daylight
08 Aug - 01:05:19 10° SSW 01:14:57 27° SSE 01:22:35 10° E visible
08 Aug - 03:08:55 10° SW 03:19:41 49° SSE 03:26:56 10° E visible
08 Aug - 05:14:58 10° W 05:24:02 60° S 05:30:01 10° ESE visible
08 Aug - 07:21:10 10° W 07:27:33 36° SSW 07:32:14 10° SE daylight
09 Aug - 00:32:39 10° SSW 00:42:17 25° SSE 00:50:10 10° E visible
09 Aug - 02:35:49 10° SW 02:47:08 48° SSE 02:54:52 10° E visible
09 Aug - 04:41:52 10° WSW 04:51:41 62° S 04:58:05 10° ESE visible
09 Aug - 06:48:14 10° W 06:55:25 41° SSW 07:00:29 10° SE daylight
09 Aug - 08:56:10 10° WSW 08:57:58 11° SW 08:59:24 10° SSW daylight
